Volver al catálogo

SL-12 DEB

ActivoHEO
NORAD 41807·DEBRIS·🇷🇺 Russia

Lanzado Dec 25, 2006 desde Baikonur Cosmodrome

Loading…

Próximos Pases (próximas 24 horas)

TLE

ActualizadoSource: Space-Track

Época: Sep 13, 2026, 06:00 UTC

1 41807U 06062M   26256.25015161  .00000418  00000-0  96474-3 0  9992
2 41807  64.8400 273.5469 5600159 225.3658  72.4949  4.42984385 13216

Sigue SL-12 DEB en tiempo real con AllMySat

Download on the App Store